Starlink 11569

operational
NORAD ID: 62910 Int'l Des: 2025-027 Owner: SPXS Country: US Constellation: starlink
LEOCIRCULAR

Über Starlink 11569

Beschreibung wird geladen...

Live-Position

3D-Globus wird geladen...

Nächste Überflüge

Höhenverlauf

Altitude vs Time

uPlot chart will show altitude changes over time

Zweizeiliger Elementsatz

1 62910U 25027D 25352.00002315 -.00064785 00000-0 -50487-3 0 9991
2 62910 43.0003 119.9544 0001606 274.1293 159.7862 15.70860518 5840
Epoch: 18. Dez. 2025 • Age: 10 hours

Aktueller Status

Höhe 367.4 km
Geschwindigkeit 7.69 km/s
Subsatellitenpunkt -39.58°S, 177.13°E
Startdatum 8. Feb. 2025
Alter 0.8 years
Typ internet

Technische Details

Klassifizierung Payload
Masse 960.00 kg
Trockenmasse 910.00 kg
Gesamtmasse 960.00 kg
Länge 0.30 m
Durchmesser 4.10 m
Spannweite 29.00 m
Form Box + pan
Hersteller SPXS
Bus-Typ Starlink V2MD
Phasenstatus In Orbit
Besitzer/Staat SPXS/US

Große Konstellationen

Loading constellations...